Flag for Turkey Weather past 2 weeks in Mersin, Turkey

Now
59 °F

Passing clouds.


Feels Like: 59 °F
Forecast: 49 / 61 °F
Wind: No wind

Location: Adana / Sakirpasa

Current Time: Mar 30, 2015 at 9:42:35 AM

Latest Report: Mar 30, 2015 at 8:50 AM


Visibility: N/A

Pressure: 29.80 "Hg

Humidity: 82%

Dew point: 54 °F

Location of MersinLocation

Historic Weather in Mersin — Graph

°F

Mersin temperature yesterday

Maximum temperature yesterday: 77 °F (at 3:20 PM)
Minimum temperature yesterday: 54 °F (at 10:50 PM)
Average temperature yesterday: 63 °F

Past Weeks' High & Low Weather Summary

 TemperatureHumidityPressure
High77 °F (Mar 27, 1:20 PM)100% (Mar 16, 6:50 AM)30.15 "Hg (Mar 16, 6:50 AM)
Low39 °F (Mar 23, 4:20 AM)15% (Mar 25, 3:50 PM)29.65 "Hg (Mar 29, 4:50 PM)
Average58 °F61%29.97 "Hg
* Reported Mar 15 7:20 AM — Mar 30 8:20 AM, Mersin, Weather by CustomWeather, © 2015

Note: Actual official high and low records may vary slightly from our data, if they occured in-between our weather recording intervals... More about our weather records

Advertising

Mersin weather history for previous 24 hours

 ConditionsComfort  
Time TempWeatherWind HumidityBarometerVisibility
8:20 AM
Mon, Mar 30
55 °FFog.No wind88%29.80 "Hg3 mi
7:50 AM55 °FFog.No wind88%29.77 "Hg3 mi
7:20 AM50 °FFog.No wind94%29.77 "Hg3 mi
6:50 AM50 °FFog.2 mph88%29.77 "Hg3 mi
6:20 AM52 °FFog.5 mph88%29.74 "Hg3 mi
5:50 AM54 °FFog.2 mph88%29.74 "Hg3 mi
5:20 AM52 °FFog.3 mph88%29.74 "Hg3 mi
4:50 AM54 °FFog.3 mph88%29.74 "Hg3 mi
4:20 AM54 °FFog.5 mph88%29.74 "Hg3 mi
3:50 AM54 °FFog.1 mph88%29.74 "Hg3 mi
3:20 AM55 °FFog.No wind82%29.74 "Hg3 mi
2:50 AM55 °FFog.2 mph82%29.77 "Hg3 mi
2:20 AM55 °FFog.No wind82%29.77 "Hg3 mi
1:50 AM55 °FFog.6 mph82%29.77 "Hg3 mi
1:20 AM55 °FFog.3 mph88%29.77 "Hg3 mi
12:50 AM55 °FFog.1 mph82%29.77 "Hg3 mi
12:20 AM54 °FFog.5 mph94%29.77 "Hg3 mi
11:50 PM
Sun, Mar 29
54 °FFog.6 mph88%29.80 "Hg3 mi
11:20 PM54 °FPassing clouds.2 mph88%29.80 "HgN/A
10:50 PM54 °FPassing clouds.2 mph88%29.77 "HgN/A
10:20 PM55 °FPartly cloudy.No wind82%29.77 "HgN/A
9:50 PM55 °FPartly cloudy.No wind82%29.77 "HgN/A
9:20 PM55 °FPartly cloudy.6 mph88%29.74 "HgN/A
8:50 PM55 °FSprinkles. Partly cloudy.1 mph88%29.74 "HgN/A
8:20 PM57 °FThunderstorms. Partly cloudy.17 mph82%29.77 "Hg4 mi
7:50 PM57 °FThunderstorms. Broken clouds.26 mph82%29.74 "HgN/A
7:20 PM63 °FThunderstorms. Broken clouds.14 mph77%29.71 "HgN/A
7:01 PM63 °FThunderstorms. Broken clouds.10 mph77%29.68 "HgN/A
6:20 PM68 °FBroken clouds.9 mph56%29.65 "HgN/A
5:50 PM70 °FBroken clouds.12 mph53%29.68 "HgN/A
5:20 PM72 °FBroken clouds.9 mph47%29.65 "HgN/A
4:50 PM73 °FScattered clouds.6 mph44%29.65 "HgN/A
4:20 PM73 °FPartly sunny.7 mph41%29.68 "HgN/A
3:50 PM75 °FPartly sunny.6 mph39%29.68 "HgN/A
3:20 PM77 °FBroken clouds.5 mph36%29.71 "HgN/A
2:50 PM75 °FBroken clouds.3 mph36%29.71 "HgN/A
2:20 PM75 °FBroken clouds.3 mph39%29.74 "HgN/A
1:50 PM73 °FBroken clouds.6 mph38%29.77 "HgN/A
1:20 PM73 °FBroken clouds.8 mph38%29.77 "HgN/A
12:50 PM75 °FPartly sunny.7 mph41%29.77 "HgN/A
12:20 PM73 °FPassing clouds.8 mph41%29.80 "HgN/A
11:50 AM72 °FPassing clouds.12 mph44%29.80 "HgN/A
11:20 AM73 °FPassing clouds.12 mph44%29.80 "HgN/A
10:50 AM72 °FPassing clouds.14 mph44%29.83 "HgN/A
10:20 AM70 °FScattered clouds.12 mph50%29.83 "HgN/A
9:50 AM68 °FScattered clouds.12 mph53%29.83 "HgN/A
9:20 AM66 °FScattered clouds.10 mph60%29.83 "HgN/A
Weather by CustomWeather, © 2015

See weather overviewHow to use our weather pages